SCP
0 0 0 0 0 0 0 0 0 0 0 0 0 0 0 0 0 0 0 0 0 0 0 0 0 0 0 0 0 0 0 0 0 0 0 0 0 0 0 0 0 0 0
0 0 0 0 0 0 0 0 0 0 0 0 0 0 0 0 0 0 0 0 0 0 0 0 0 0 0 0 0 0 0 0 0 0 0 0 0 0 0 0 0 0 0
0 0 0 0 0 0 0 0 0 0 0 0 0 0 0 0 0 0 0 0 0 0 0 0 0 0 0 0 0 0 0 0 0 0 0 0 0 0 0 0 0 0 0
0 0 0 0 0 0 0 0 0 0 0 0 0 0 0 0 0 0 0 0 0 0 0 0 0 0 0 0 0 0 0 0 0 0 0 0 0 0 0 0 0 0 0
0 0 0 0 0 0 0 0 0 0 0 0 0 0 0 0 0 0 0 0 0 0 0 0 0 0 0 0 0 0 0 0 0 0 0 0 0 0 0 0 0 0 0
0 0 0 0 0 -0 -0 0 0 0 0 0 0 0 0 0 0 0 0 0 0 0 0 0 0 0 0 0 0 0 0 0 0 0 0 0 0 0 0 0 0 0 0
0 0 0 0 0 0 0 -0 0 0 0 0 0 0 0 0 0 0 0 0 0 0 0 0 0 0 0 0 0 0 0 0 0 0 0 0 0 0 0 0 0 0 0
-0 -0 -0 0 0 0 0 -0 0 0 0 0 0 0 0 0 0 0 0 0 0 0 0 0 -0 -0 -0 0 -0 -0 -0 -0 0 0 0 0 0 0 0 0 0 0 0
-0 -0 0 0 0 0 0 0 0 0 0 0 0 0 0 0 0 0 0 0 0 0 0 0 -0 -0 -0 0 0 0 -0 -0 -0 -0 0 0 0 0 0 0 0 0 0
-0 0 0 0 0 0 0 0 0 0 0 0 0 0 0 0 0 0 -0 0 0 0 0 0 -0 -0 -0 0 0 0 -0 -0 0 0 0 0 0 0 0 0 0 0 0
0 0 0 0 0 0 0 0 0 0 0 0 0 0 0 0 0 0 -0 0 0 0 0 0 0 0 0 0 0 0 0 -0 0 0 0 0 0 0 0 0 0 0 0
0 0 0 0 0 0 0 0 0 0 0 0 0 0 0 0 0 0 -0 0 0 0 0 0 0 0 0 0 0 0 0 0 0 0 0 0 0 0 0 0 0 0 0
0 0 0 0 0 0 0 0 0 0 0 0 0 0 0 0 0 0 0 0 0 0 0 0 0 0 0 0 0 0 0 0 0 0 0 0 0 0 0 0 0 0 0
-0 -0 0 0 0 0 0 0 0 0 0 0 0 0 0 0 0 0 0 0 0 0 0 0 0 0 0 0 0 0 0 0 0 0 0 0 0 0 0 0 0 0 0
-0 -0 -0 -0 0 0 0 0 0 0 0 0 0 0 0 0 0 0 0 0 0 0 0 0 0 0 0 0 0 0 0 0 0 0 0 0 0 0 0 0 0 0 0
0 -0 -0 0 0 0 0 0 0 0 0 0 0 0 0 0 0 0 0 0 0 0 0 0 0 0 0 0 0 0 0 0 0 0 0 0 0 0 0 0 0 0 0
0 -0 -0 0 0 0 0 0 0 0 0 0 0 0 0 0 0 0 0 0 0 0 0 -0 -0 0 0 0 0 0 0 0 0 0 0 0 0 0 0 0 0 0 0
0 0 0 0 0 0 0 -0 -0 -0 -0 0 0 0 0 0 0 0 0 0 0 0 -0 -0 -0 -0 0 0 0 0 0 0 0 0 0 0 0 0 0 0 0 0 0
0 0 0 0 0 0 0 -0 -0 -0 -0 0 0 0 0 0 0 0 0 0 0 0 -0 -0 -0 0 0 0 0 0 0 0 0 0 0 0 0 0 0 0 0 0 0
0 0 -0 -0 0 0 0 -0 -0 -0 -0 0 0 0 0 0 0 0 0 0 0 0 0 0 0 0 0 0 0 0 0 0 0 0 0 0 0 0 0 0 0 0 0
0 0 -0 -0 0 0 0 0 0 0 0 0 0 -0 0 0 0 0 0 0 0 0 0 0 0 0 0 0 0 0 0 0 0 0 0 0 0 0 0 0 0 0 0
0 0 0 0 0 0 0 0 0 0 0 0 0 0 0 0 0 0 0 0 0 0 0 0 0 0 0 0 0 0 0 0 0 0 0 0 0 0 0 0 -0 -0 -0
0 0 0 0 0 0 0 0 0 0 0 0 0 0 0 0 0 0 0 0 0 0 0 0 0 0 0 0 0 0 0 0 0 0 0 0 0 0 0 0 -0 -0 -0
0 0 0 0 -0 -0 -0 0 0 0 0 0 0 0 0 0 0 0 0 0 0 0 0 0 0 0 0 0 0 0 0 0 0 0 0 0 0 0 0 0 0 0 -0
0 0 0 0 -0 0 0 0 0 0 0 0 0 0 0 0 0 0 0 0 0 0 0 0 0 0 0 0 0 0 0 0 0 0 0 0 0 0 0 0 0 0 -0
0 0 0 0 -0 0 0 0 0 0 0 0 0 0 0 0 0 0 0 0 0 0 0 0 0 0 0 0 0 0 0 0 0 0 0 0 0 0 0 0 0 0 0
Wind_Speed
14 14 14 13 13 13 13 12 11 10 11 11 10 10 10 10 9 9 9 8 9 8 7 8 8 6 5 5 5 5 5 3 3 1 2 2 3 3 3 3 3 3 3
13 13 13 12 12 13 12 11 10 11 10 10 10 10 10 9 9 9 9 8 8 8 7 7 7 6 7 5 5 6 4 4 2 2 2 2 2 3 3 3 3 3 3
11 13 13 12 12 12 11 10 10 10 10 10 10 10 9 8 8 7 7 7 7 6 6 6 5 6 6 4 5 4 3 3 2 1 2 2 2 2 3 3 3 3 4
11 11 12 10 10 10 9 9 9 9 9 8 8 8 8 7 7 7 7 7 6 6 5 5 4 4 4 4 4 4 3 3 3 2 2 2 2 2 2 2 3 3 4
10 11 10 8 8 8 8 8 8 8 8 7 8 8 7 7 6 6 6 6 6 6 6 5 5 6 7 4 3 2 2 2 2 2 2 2 2 2 2 2 3 4 3
9 9 8 7 7 7 7 7 7 7 6 7 8 8 8 6 8 9 7 5 5 6 5 5 4 6 8 8 8 5 3 1 1 1 1 2 3 3 2 2 2 3 3
7 7 6 6 6 5 6 6 6 5 5 6 6 6 6 7 10 9 9 5 5 5 4 4 4 5 6 5 7 7 6 4 2 2 3 3 3 3 3 3 2 3 4
6 6 5 5 5 5 5 5 4 3 4 4 4 5 5 7 9 9 8 5 5 5 4 4 4 5 6 6 6 6 6 5 4 2 4 6 6 6 5 3 3 4 5
5 4 4 4 5 5 5 4 3 3 3 3 3 4 5 6 9 8 6 4 4 5 5 4 5 5 8 8 5 6 7 5 4 5 7 8 10 9 6 3 2 2 3
4 4 3 4 4 4 3 3 2 3 3 4 5 5 5 5 8 9 6 3 4 5 5 5 6 7 9 7 3 4 6 6 7 8 7 6 4 3 2 4 3 2 2
3 4 4 3 3 3 3 3 3 4 5 5 5 4 4 5 6 8 8 3 3 4 4 5 6 11 10 8 3 2 5 6 6 6 5 5 4 3 2 1 3 3 2
4 4 4 3 3 3 4 4 4 4 5 4 3 3 3 4 5 7 8 6 4 3 3 4 6 10 8 7 5 5 5 4 2 3 4 4 4 4 4 4 2 3 4
4 4 3 4 4 3 4 4 4 3 3 2 2 2 3 3 4 7 8 8 7 3 3 6 7 8 7 6 7 8 5 4 3 3 4 4 4 4 4 3 2 1 0
4 3 3 3 4 4 4 3 3 2 2 2 2 2 2 3 4 5 5 5 6 5 4 6 7 8 7 6 6 6 4 3 3 3 3 4 4 3 3 3 2 2 2
3 3 3 3 3 4 4 3 2 1 1 1 1 0 1 3 4 7 5 4 4 3 3 4 5 5 6 6 5 5 5 5 5 4 4 4 4 4 3 3 2 2 2
3 2 2 2 2 3 3 2 3 2 2 1 2 2 2 3 6 6 6 6 7 5 4 4 4 4 5 5 6 6 5 6 6 5 4 4 4 4 4 3 2 2 2
3 2 2 2 3 2 2 2 1 3 3 3 2 2 2 4 5 5 5 7 9 7 5 4 4 4 4 4 5 5 5 5 5 5 5 5 4 4 3 3 3 3 3
3 3 3 3 3 3 2 2 1 1 1 2 3 4 5 5 6 6 5 5 5 5 3 3 3 3 4 4 5 5 5 6 5 5 5 5 5 4 3 4 4 4 3
3 2 2 2 3 3 2 2 1 1 1 1 2 3 5 4 6 7 6 4 3 3 3 3 3 3 3 4 4 5 5 5 6 5 5 5 5 4 3 4 4 4 3
2 4 4 3 3 3 2 2 2 1 1 1 1 2 2 3 3 3 3 2 2 2 2 2 3 3 3 4 4 5 5 5 6 5 5 5 5 4 4 4 4 4 3
2 3 4 3 3 3 3 2 2 1 1 0 1 1 0 1 1 1 2 2 2 2 2 2 2 3 4 4 4 5 6 5 5 5 5 5 5 5 4 4 3 3 3
3 3 3 3 3 2 2 2 2 2 1 1 1 1 1 1 0 1 1 1 1 1 1 2 2 3 3 4 4 5 5 5 6 6 6 6 5 5 5 4 4 4 4
3 3 3 2 2 3 2 2 2 2 1 1 1 0 0 0 0 0 1 1 1 1 2 2 2 3 3 3 3 4 5 5 5 6 6 6 5 5 5 4 5 5 4
3 3 3 3 3 3 3 2 2 2 1 1 1 1 1 0 0 0 0 0 1 1 2 2 3 4 6 5 4 4 4 6 6 5 6 6 6 5 4 4 4 5 4
3 3 4 3 3 3 3 2 2 2 1 1 1 1 1 0 0 0 0 0 1 1 2 2 3 4 6 8 7 7 8 9 7 5 5 4 5 5 4 4 4 4 5
3 3 3 3 3 3 3 3 2 2 2 1 1 1 1 1 1 0 0 1 1 0 1 2 4 5 7 6 8 9 9 9 8 7 5 3 3 3 3 3 5 4 5
Wind_Direction
71 74 75 73 75 77 76 75 75 74 71 71 70 70 67 63 62 66 64 60 62 56 51 54 50 43 42 34 37 41 39 48 78 26 357 353 4 9 358 352 343 327 317
73 76 76 75 75 76 75 73 73 73 70 70 69 68 66 63 60 62 64 60 59 55 49 52 46 46 43 35 38 39 36 33 54 34 356 353 351 347 341 332 327 322 307
78 81 79 76 76 76 75 72 71 71 69 66 66 66 63 61 60 59 62 60 57 53 49 50 42 44 40 32 34 33 27 32 40 39 350 331 320 334 336 323 318 310 306
81 82 80 77 77 76 74 71 68 70 69 66 65 64 61 59 57 56 57 56 52 47 46 45 40 42 37 23 24 21 21 25 24 20 356 338 321 323 323 329 329 326 317
84 82 79 77 76 75 73 69 67 66 67 64 64 57 51 51 48 54 52 53 47 42 37 32 33 43 40 28 16 6 11 13 8 3 350 331 321 326 330 324 315 320 309
85 84 82 80 77 74 74 73 70 66 62 61 59 58 52 47 48 58 63 54 48 43 33 20 21 29 20 17 12 6 354 330 325 318 312 308 302 294 294 305 314 331 320
85 84 82 81 77 73 74 72 68 66 65 64 61 62 55 41 47 54 57 59 49 40 30 16 10 8 6 357 353 358 354 337 275 235 265 275 279 275 293 301 299 294 286
85 82 78 78 76 70 68 65 63 68 71 69 63 61 55 39 40 47 50 51 46 32 20 8 356 347 351 349 345 346 341 333 312 270 257 268 268 270 256 266 295 295 281
89 83 80 83 81 73 67 59 55 66 68 68 67 61 54 31 32 40 42 32 26 11 2 358 351 342 337 347 350 342 337 333 323 309 285 278 276 274 257 233 253 284 315
100 94 84 81 81 75 68 59 51 68 74 79 70 58 54 39 29 34 35 29 17 357 347 349 352 342 334 338 335 331 331 328 335 337 336 333 324 317 250 215 233 253 291
106 94 79 74 80 81 71 59 70 81 79 75 70 51 41 29 21 24 27 30 8 348 347 344 337 336 338 343 334 291 287 302 314 321 325 335 344 355 356 299 229 223 243
99 88 75 64 69 87 86 74 72 84 83 73 62 37 15 7 9 5 11 15 8 351 336 330 325 334 349 3 6 346 332 329 331 342 350 348 345 343 336 331 306 231 234
99 89 77 71 67 74 86 86 73 70 80 74 61 28 350 348 353 358 1 4 8 4 325 326 341 358 9 14 14 13 12 12 7 3 350 332 317 310 312 328 3 17 275
112 99 87 85 74 65 68 76 84 84 85 79 60 20 348 344 355 356 353 356 3 7 356 353 6 18 27 18 11 13 17 11 4 346 326 318 324 336 354 359 2 0 1
118 107 97 95 99 86 72 65 80 78 175 136 132 327 350 347 331 333 338 344 343 345 356 17 22 17 16 11 4 3 6 10 9 355 348 345 349 355 360 357 359 359 1
126 115 112 114 110 108 100 67 44 57 66 113 189 218 269 281 311 341 8 23 28 41 57 41 26 18 12 4 357 353 359 2 355 346 349 354 351 350 354 0 2 360 351
155 158 142 139 142 139 128 112 67 12 23 36 22 358 336 341 2 17 35 53 45 51 57 39 24 11 3 359 356 351 348 343 340 346 353 354 350 351 359 0 0 357 349
159 169 163 161 161 158 152 136 118 86 25 357 1 16 24 33 36 34 40 51 39 37 39 27 12 3 360 356 353 349 343 347 353 353 354 354 353 350 355 357 357 349 337
162 162 155 153 155 154 147 137 127 111 72 8 358 6 17 33 47 43 46 53 44 28 21 15 6 358 355 351 347 345 345 348 350 348 350 350 349 347 350 352 350 348 347
169 171 152 144 142 141 143 145 146 139 105 34 6 351 353 23 30 20 28 32 35 23 11 7 1 359 354 350 346 345 347 351 352 352 346 344 343 342 343 344 349 350 345
155 157 146 139 149 155 158 166 168 167 173 212 286 302 303 54 29 10 8 11 6 0 357 356 356 354 353 348 347 347 348 346 348 344 339 338 339 340 336 336 341 348 345
150 151 152 154 156 158 163 168 169 177 195 216 267 342 91 95 40 359 351 355 2 4 358 353 356 357 351 347 343 339 338 340 342 340 333 331 332 335 337 343 350 353 355
154 152 148 147 151 153 151 157 167 175 191 207 223 226 138 79 354 334 335 352 16 34 28 16 0 355 351 345 339 331 326 325 321 316 315 319 326 333 338 343 349 352 357
164 165 162 155 151 154 162 168 176 186 196 203 196 198 209 219 285 320 328 30 74 60 41 23 7 356 352 348 339 333 326 316 308 297 297 298 310 321 332 343 351 355 355
163 164 163 162 163 165 167 170 172 175 187 200 201 204 212 192 209 305 31 144 121 78 46 24 5 355 352 350 348 342 332 325 319 313 297 290 302 316 332 349 358 360 4
165 167 163 160 163 166 171 177 180 181 190 201 205 212 207 202 215 243 197 181 167 105 26 9 2 1 354 350 348 343 337 335 334 331 319 306 321 342 354 8 13 14 13